Weather History for Aurora, IL

Change the Weather History Date:

Friday, December 2, 2011

  Actual Average Record
Temperature  
Mean Temperature 34 °F 30 °F  
Max Temperature 39 °F 38 °F 63 °F (2012)
Min Temperature 30 °F 22 °F 0 °F (2006)
Degree Days  
Heating Degree Days 30 35  
Month to date heating degree days 70  
Since 1 July heating degree days 1484  
Cooling Degree Days 0 0  
Month to date cooling degree days 0  
Year to date cooling degree days 655  
Moisture  
Dew Point 29 °F    
Average Humidity 83    
Maximum Humidity 93    
Minimum Humidity 65    
Precipitation  
Precipitation 0.00 in 0.10 in 0.46 in (2007)
Month to date precipitation 0.19  
Year to date precipitation 35.09  
Sea Level Pressure  
Sea Level Pressure 30.40 in    
Wind  
Wind Speed 7 mph (South)    
Max Wind Speed 16 mph    
Max Gust Speed -    
Visibility 8 miles    
Events Snow    
T = Trace of Precipitation, MM = Missing Value Source: NWS Daily Summary

Daily Weather History Graph

Daily Weather History Graph

Search for Another Location

Airport:

Trip Planner

Search our weather history database for the weather conditions in past years. The results will help you decide how hot, cold, wet, or windy it might be!

Date:

Astronomy

Dec. 02, 2011 Rise Set
Actual Time 7:02 AM CST 4:23 PM CST
Civil Twilight 6:31 AM CST 4:54 PM CST
Nautical Twilight 5:56 AM CST 5:29 PM CST
Astronomical Twilight 5:23 AM CST 6:03 PM CST
Moon 12:08 PM CST (12/2) No Moon Set
Length of Visible Light 10h 23m
Length of Day
9h 21m
First Quarter, 53% of the Moon is Illuminated
Dec 2
First Quarter
Dec 10
Full
Dec 17
Last Quarter
Dec 24
New
Jan 1
First Quarter

Hourly Weather History & Observations

Time (CST) Temp. Windchill Dew Point Humidity Pressure Visibility Wind Dir Wind Speed Gust Speed Precip Events Conditions
12:01 AM 33.8 °F 27.0 °F 32.0 °F 93% 30.31 in 2.5 mi NNW 8.1 mph - 0.00 in Snow Light Snow
12:09 AM 33.8 °F 27.0 °F 32.0 °F 93% 30.31 in 3.0 mi NW 8.1 mph - 0.00 in Snow Light Snow
12:27 AM 33.8 °F 27.7 °F 32.0 °F 93% 30.31 in 3.0 mi NW 6.9 mph - 0.00 in   Overcast
12:52 AM 34.0 °F 26.0 °F 32.0 °F 92% 30.34 in 4.0 mi NNW 10.4 mph - 0.00 in Snow Light Snow
1:52 AM 34.0 °F 23.8 °F 30.9 °F 89% 30.35 in 9.0 mi NNW 16.1 mph - 0.00 in   Overcast
2:23 AM 33.8 °F 24.8 °F 30.2 °F 87% 30.35 in 10.0 mi NNW 12.7 mph - N/A   Overcast
3:52 AM 33.1 °F 24.9 °F 30.0 °F 89% 30.37 in 9.0 mi North 10.4 mph - N/A   Overcast
4:08 AM 33.8 °F 25.3 °F 30.2 °F 87% 30.36 in 9.0 mi North 11.5 mph - N/A   Overcast
4:52 AM 32.0 °F 26.4 °F 28.9 °F 88% 30.39 in 9.0 mi North 5.8 mph - N/A   Overcast
6:52 AM 30.9 °F 25.2 °F 28.0 °F 89% 30.44 in 9.0 mi NNW 5.8 mph - N/A   Overcast
7:52 AM 32.0 °F - 28.0 °F 85% 30.45 in 8.0 mi Calm Calm - N/A   Overcast
9:52 AM 33.1 °F - 28.0 °F 82% 30.49 in 9.0 mi Calm Calm - N/A   Overcast
10:27 AM 33.8 °F 30.8 °F 28.4 °F 81% 30.47 in 10.0 mi Variable 3.5 mph - N/A   Overcast
10:52 AM 34.0 °F - 28.9 °F 82% 30.48 in 10.0 mi Calm Calm - N/A   Scattered Clouds
11:52 AM 37.0 °F - 28.9 °F 73% 30.46 in 10.0 mi Calm Calm - N/A   Clear
1:29 PM 39.2 °F 34.2 °F 28.4 °F 65% 30.42 in 10.0 mi SSW 6.9 mph - N/A   Mostly Cloudy
1:52 PM 39.0 °F 31.4 °F 30.9 °F 73% 30.43 in 10.0 mi South 12.7 mph - N/A   Mostly Cloudy
2:52 PM 37.0 °F 31.0 °F 30.0 °F 76% 30.43 in 10.0 mi South 8.1 mph - N/A   Mostly Cloudy
3:33 PM 37.4 °F 30.3 °F 28.4 °F 70% 30.40 in 10.0 mi SSE 10.4 mph - N/A   Scattered Clouds
3:52 PM 36.0 °F 31.1 °F 28.9 °F 76% 30.42 in 10.0 mi SSE 5.8 mph - N/A   Partly Cloudy
4:52 PM 36.0 °F 30.3 °F 28.9 °F 76% 30.42 in 10.0 mi SSE 6.9 mph - N/A   Overcast
5:52 PM 34.0 °F 29.8 °F 28.0 °F 79% 30.41 in 10.0 mi SSE 4.6 mph - N/A   Clear
6:52 PM 33.1 °F 28.7 °F 28.9 °F 85% 30.42 in 10.0 mi South 4.6 mph - N/A   Scattered Clouds
7:03 PM 33.8 °F 30.8 °F 28.4 °F 81% 30.39 in 9.0 mi South 3.5 mph - N/A   Mostly Cloudy
7:20 PM 33.8 °F 29.6 °F 28.4 °F 81% 30.39 in 9.0 mi South 4.6 mph - N/A   Scattered Clouds
7:52 PM 30.9 °F 26.2 °F 27.0 °F 85% 30.41 in 9.0 mi SSE 4.6 mph - N/A   Clear
8:52 PM 30.0 °F 23.2 °F 27.0 °F 88% 30.39 in 7.0 mi ESE 6.9 mph - N/A   Clear
10:52 PM 34.0 °F 27.2 °F 30.9 °F 89% 30.36 in 8.0 mi SSE 8.1 mph - N/A   Clear
11:52 PM 35.1 °F 28.6 °F 32.0 °F 89% 30.35 in 7.0 mi SSE 8.1 mph - N/A   Overcast